Flag for Japan

Past Weather in Hiroshima, Japan — Yesterday and Last 2 Weeks

Now
71 °F

Passing clouds.


Feels Like: 72 °F
Forecast: 76 / 68 °F
Wind: 3 mph from Northwest

Location: Iwakuni Marine Corps Air Station

Current Time: Jul 3, 2020 at 4:10:01 am

Latest Report: Jul 3, 2020 at 2:55 am


Visibility: N/A

Pressure: 29.89 "Hg

Humidity: 78%

Dew Point: 64 °F

Location of HiroshimaLocation

Past Weather in Hiroshima — Graph

°F

Hiroshima Temperature Yesterday

Maximum temperature yesterday: 78 °F (at 2:55 pm)
Minimum temperature yesterday: 65 °F (at 3:55 am)
Average temperature yesterday: 73 °F

High & Low Weather Summary for the Past Weeks

 TemperatureHumidityPressure
High88 °F (Jun 26, 3:55 pm)94% (Jun 18, 1:35 pm)29.92 "Hg (Jun 18, 1:35 pm)
Low64 °F (Jun 20, 4:55 am)46% (Jun 26, 4:55 pm)29.43 "Hg (Jun 30, 12:20 pm)
Average74 °F76%29.70 "Hg
* Reported Jun 18 2:55 am — Jul 3 2:55 am, Hiroshima. Weather by CustomWeather, © 2020

Note: Actual official high and low records may vary slightly from our data, if they occured in-between our weather recording intervals... More about our weather records

Hiroshima Weather History for the Previous 24 Hours

Scroll right to see more
 ConditionsComfort  
Time TempWeatherWind HumidityBarometerVisibility
2:55 am
Fri, Jul 3
71 °FPassing clouds.3 mph78%29.89 "HgN/A
1:55 am72 °FPassing clouds.5 mph76%29.90 "HgN/A
12:55 am72 °FPassing clouds.3 mph76%29.90 "HgN/A
11:55 pm
Thu, Jul 2
73 °FPassing clouds.6 mph76%29.92 "HgN/A
10:55 pm73 °FPassing clouds.6 mph76%29.92 "HgN/A
9:55 pm74 °FPassing clouds.3 mph74%29.91 "HgN/A
8:55 pm75 °FPassing clouds.No wind69%29.89 "HgN/A
7:55 pm75 °FPassing clouds.3 mph66%29.87 "HgN/A
6:55 pm76 °FPartly sunny.6 mph69%29.88 "HgN/A
5:55 pm76 °FBroken clouds.3 mph64%29.86 "HgN/A
4:55 pm77 °FBroken clouds.5 mph66%29.86 "HgN/A
3:55 pm78 °FBroken clouds.5 mph60%29.85 "HgN/A
2:55 pm78 °FBroken clouds.7 mph60%29.85 "HgN/A
1:55 pm77 °FBroken clouds.7 mph60%29.86 "HgN/A
12:55 pm76 °FBroken clouds.5 mph60%29.87 "HgN/A
11:55 am75 °FBroken clouds.7 mph66%29.87 "HgN/A
10:55 am75 °FBroken clouds.7 mph64%29.87 "HgN/A
9:55 am75 °FBroken clouds.5 mph62%29.86 "HgN/A
8:55 am72 °FScattered clouds.5 mph69%29.87 "HgN/A
7:55 am71 °FBroken clouds.No wind73%29.87 "HgN/A
6:55 am69 °FPartly sunny.5 mph73%29.86 "HgN/A
5:55 am67 °FPartly sunny.6 mph79%29.84 "HgN/A
4:55 am66 °FPassing clouds.8 mph78%29.81 "HgN/A
Weather by CustomWeather, © 2020

See weather overview